Date,TemperatureHighF,TemperatureAvgF,TemperatureLowF,DewpointHighF,DewpointAvgF,DewpointLowF,HumidityHigh,HumidityAvg,HumidityLow,PressureMaxIn,PressureMinIn,WindSpeedMaxMPH,WindSpeedAvgMPH,GustSpeedMaxMPH,PrecipitationSumIn
2013-3-1,52,48,44,46,40,28,98,77,40,29.97,29.85,30,10,34,1.85
2013-3-2,59,50,40,40,35,30,96,57,40,30.09,29.94,14,6,23,0.05
2013-3-3,60,48,37,47,39,34,100,75,40,30.06,29.94,13,6,16,0.01
2013-3-4,59,49,38,50,42,33,98,78,55,29.97,29.85,19,9,23,0.00
2013-3-5,56,55,53,55,53,48,100,95,77,29.83,29.44,37,17,41,1.78
2013-3-6,58,56,54,57,53,48,100,93,74,29.50,29.29,36,11,42,0.36
2013-3-7,61,54,46,56,51,46,100,90,64,29.65,29.47,20,5,24,0.00
2013-3-8,67,58,52,53,47,41,94,68,40,29.71,29.44,17,5,21,0.00
2013-3-9,67,56,48,52,45,35,98,70,32,29.68,29.56,23,5,23,0.00
2013-3-10,68,56,46,45,41,34,90,61,30,29.62,29.44,17,5,20,0.00
2013-3-11,67,54,44,39,36,32,78,52,28,29.59,29.44,20,5,26,0.00
2013-3-12,58,50,42,51,42,33,100,76,48,29.56,29.44,20,5,36,1.03
2013-3-13,48,44,40,43,30,15,100,63,35,29.56,29.38,30,11,37,0.10
2013-3-14,52,45,39,23,16,10,46,32,22,29.80,29.56,26,12,44,0.00
2013-3-15,57,46,37,31,19,12,78,37,17,30.06,29.80,18,7,26,0.00
2013-3-16,58,48,34,43,36,30,98,67,42,30.06,29.83,27,10,32,0.00
2013-3-17,60,55,51,47,43,38,85,66,47,29.80,29.44,21,7,21,0.00
2013-3-18,63,52,41,51,41,27,100,69,25,29.74,29.38,17,5,24,0.07
2013-3-19,61,50,40,48,42,37,100,77,49,29.77,29.59,17,5,23,0.01
2013-3-20,62,52,46,50,44,32,100,79,35,30.06,29.56,19,3,24,0.24
2013-3-21,62,52,43,46,41,33,100,69,37,30.09,29.88,20,6,26,0.00
2013-3-22,64,53,43,51,45,40,100,77,49,29.88,29.68,23,7,26,0.00
2013-3-23,61,54,47,54,49,44,100,83,55,29.71,29.59,12,4,17,0.01
2013-3-24,60,53,46,51,46,42,100,80,53,29.62,29.50,12,3,18,0.01
2013-3-25,65,54,45,49,43,35,100,73,34,29.68,29.59,13,5,17,0.01
2013-3-26,65,56,47,52,42,37,100,63,42,29.65,29.53,15,4,20,0.13
2013-3-27,55,52,51,52,50,49,100,93,83,29.71,29.56,10,2,13,0.02
2013-3-28,65,56,52,57,52,49,100,89,56,29.83,29.62,12,3,19,0.11
2013-3-29,65,57,49,57,50,42,100,79,48,29.83,29.56,12,3,17,0.01
2013-3-30,63,55,47,54,48,42,100,79,48,29.77,29.47,17,4,20,0.30
2013-3-31,62,53,44,53,44,39,100,77,42,29.77,29.62,17,6,23,0.01